OPS 4682 DEB, 38413

Orbit data source: Space-Track

OPS 4682 DEB, 38413 is space debris in LEO originally from a launch on Sat, 03 Apr 1965 UTC launched from the Air Force Western Test Range (AFWTR). Debris objects in space refer to the collection of defunct objects orbiting the Earth. Examples of debris include non-operational satellites, rocket bodies, and fragments generated from explosions, collisions, or faulty payload assembly.

Loading next visibility...
Identifier
38413, 1965-027DS
Orbit
LEO
Country
Flag of USUS
Related business
Manufacturer
Unknown
Mission
Spacecraft
Bus & Motor
Unknown
Mass
Unknown
Launch date (UTC)
1965-04-03 (61 years ago)
Launch vehicle
Unknown
Launch site
Air Force Western Test Range (AFWTR)
Object type
Payload
Rocket body
Debris
Shape & HBR
Unknown shape, 0.1 m
Radar Cross Section
Small (<0.1 m²)

Expand to show TLE details & history
Last TLE update: 6 days ago

TLE from 6 days ago
0 OPS 4682 DEB
1 38413U 65027DS  26100.44029985  .00000413  00000-0  13453-2 0  9995
2 38413  90.2463   8.7497 0031065 104.5411 255.9160 12.99988704116475
Epoch: 2026-04-10T10:34Z
TLE epoch observation values (Epoch: 2026-04-10T10:34:01.907Z)
Latitude
-0.00002°
Longitude
11.56783°
Altitude
1,270.861 km
Speed
7.217 km/s
True Right ascension
00h 34m 59s
True Declination
0° 00' 00"
Sunlit
Object was in daylight at epoch
Visualization orbit readout
Latitude
Unknown
Longitude
Unknown
Altitude
Unknown
Speed
Unknown
Apparent Right ascension
Unknown
Apparent Declination
Unknown
Sunlit
N/A
Visualization observer readout
Local Sidereal Time
16:26:36
Azimuth
Unknown
Elevation
Unknown
Doppler factor
Unknown
Orbital elements
Apogee altitude
1,282.983 km
Perigee altitude
1,235.532 km
Semi-major axis
7,637.395 km
Eccentricity
0.00311
Inclination
90.2463°
RAAN
8.7497°
Arg. of periapsis
104.5411°
True anomaly
255.57105°
Mean anomaly
255.916°
Eccentric anomaly
255.74349°
Mean motion
3.25181 °/min
Orbital period
110.71 mins
BSTAR
0.0013453
Loading maneuver chart data...
Computing Atmospheric mass density...
Loading historical data...
Loading historical data...
Loading historical data...
Loading historical data...
Loading historical data...
Loading historical data...
Loading historical data...

Documentation

Showing up to 5 results
|